Flag for Canada Weather past 2 weeks in Inuvik, Northwest Territories, Canada

Now
54 °F

Partly sunny.


Feels Like: 49 °F
Forecast: 44 / 56 °F
Wind: 14 mph from Northwest

Location: Inuvik

Current Time: Jul 4, 2015 at 9:33:29 PM

Latest Report: Jul 4, 2015 at 9:00 PM


Visibility: 15 mi

Pressure: 30.19 "Hg

Humidity: 67%

Dew point: 43 °F

Location of InuvikLocation

Historic Weather in Inuvik — Graph

°F

Inuvik temperature yesterday

Maximum temperature yesterday: 66 °F (at 6:00 PM)
Minimum temperature yesterday: 54 °F (at 4:00 AM)
Average temperature yesterday: 60 °F

Past Weeks' High & Low Weather Summary

 TemperatureHumidityPressure
High81 °F (Jun 22, 1:00 PM)100% (Jun 28, 4:00 AM)30.21 "Hg (Jun 28, 4:00 AM)
Low43 °F (Jun 20, 3:00 AM)27% (Jun 21, 10:00 PM)29.57 "Hg (Jun 25, 8:00 PM)
Average62 °F64%29.85 "Hg
* Reported Jun 19 8:00 PM — Jul 4 8:00 PM, Inuvik, Weather by CustomWeather, © 2015

Note: Actual official high and low records may vary slightly from our data, if they occured in-between our weather recording intervals... More about our weather records

Advertising

Inuvik weather history for previous 24 hours

 ConditionsComfort  
Time TempWeatherWind HumidityBarometerVisibility
8:00 PM
Sat, Jul 4
55 °FPartly sunny.12 mph67%30.19 "Hg15 mi
7:00 PM55 °FBroken clouds.15 mph67%30.20 "Hg15 mi
6:00 PM55 °FMostly cloudy.12 mph72%30.20 "Hg15 mi
5:00 PM54 °FMostly cloudy.12 mph77%30.21 "Hg15 mi
4:00 PM52 °FCloudy.9 mph82%30.21 "Hg15 mi
3:00 PM50 °FRain showers. Overcast.12 mph88%30.21 "Hg15 mi
2:00 PM52 °FSprinkles. More clouds than sun.8 mph94%30.20 "Hg10 mi
1:49 PM52 °FSprinkles. Fog.8 mph94%30.20 "Hg3 mi
1:00 PM52 °FSprinkles. More clouds than sun.6 mph94%30.20 "Hg5 mi
12:00 PM54 °FSprinkles. More clouds than sun.6 mph88%30.19 "Hg10 mi
11:00 AM54 °FMostly cloudy.6 mph88%30.19 "Hg15 mi
10:00 AM54 °FMostly cloudy.9 mph82%30.18 "Hg15 mi
9:00 AM54 °FMostly cloudy.10 mph88%30.17 "Hg15 mi
8:00 AM54 °FMostly cloudy.6 mph88%30.16 "Hg15 mi
7:00 AM54 °FBroken clouds.5 mph94%30.17 "Hg15 mi
6:00 AM52 °FBroken clouds.3 mph94%30.16 "Hg15 mi
5:00 AM52 °FBroken clouds.3 mph94%30.16 "Hg15 mi
4:00 AM54 °FBroken clouds.5 mph94%30.15 "Hg15 mi
3:00 AM55 °FSprinkles. Broken clouds.3 mph88%30.15 "Hg15 mi
2:00 AM57 °FPartly sunny.3 mph82%30.14 "Hg15 mi
1:00 AM57 °FPartly sunny.5 mph88%30.13 "Hg15 mi
12:00 AM61 °FPartly sunny.5 mph72%30.12 "Hg15 mi
11:00 PM
Fri, Jul 3
63 °FScattered clouds.13 mph68%30.11 "Hg15 mi
10:00 PM64 °FPartly sunny.8 mph64%30.10 "Hg15 mi
9:00 PM66 °FPassing clouds.9 mph64%30.09 "Hg15 mi
Weather by CustomWeather, © 2015

See weather overviewHow to use our weather pages